Timestamp, Local Timestamp, ID, PM25, PM10, Co2, Temperature, Relative Humidity, Monitor ID, O3
2021-02-25T21:04:24Z,02/25/21 16:04,5275391,0.47000000000000003,0.004,741,19.5,29.3,71,0.0
2021-02-25T21:05:24Z,02/25/21 16:05,5275400,0.62,0.004,739,19.4,29.3,71,0.0
2021-02-25T21:06:24Z,02/25/21 16:06,5275407,0.635,0.004,733,19.3,29.3,71,0.0
2021-02-25T21:07:24Z,02/25/21 16:07,5275418,0.47800000000000004,0.008,740,19.2,29.4,71,0.0
2021-02-25T21:08:24Z,02/25/21 16:08,5275426,0.761,0.004,729,19.2,29.4,71,0.0
2021-02-25T21:09:24Z,02/25/21 16:09,5275432,0.5519999999999999,0.0,737,19.1,29.5,71,0.0
2021-02-25T21:10:24Z,02/25/21 16:10,5275442,0.54,0.003,741,19.1,29.5,71,0.0
2021-02-25T21:11:24Z,02/25/21 16:11,5275451,0.597,0.006,733,19.1,29.5,71,0.0
2021-02-25T21:12:24Z,02/25/21 16:12,5275458,0.449,0.004,732,19.0,29.5,71,0.0
2021-02-25T21:13:24Z,02/25/21 16:13,5275466,0.618,0.003,723,19.0,29.5,71,0.0
2021-02-25T21:14:24Z,02/25/21 16:14,5275475,0.554,0.004,715,19.0,29.5,71,0.0
2021-02-25T21:15:24Z,02/25/21 16:15,5275482,0.5660000000000001,0.004,704,18.9,29.5,71,0.0
2021-02-25T21:16:24Z,02/25/21 16:16,5275489,0.502,0.008,713,18.9,29.5,71,0.0
2021-02-25T21:17:24Z,02/25/21 16:17,5275499,0.567,0.0,706,18.9,29.4,71,0.0
2021-02-25T21:18:24Z,02/25/21 16:18,5275507,0.5820000000000001,0.003,709,18.9,29.4,71,0.0
2021-02-25T21:19:24Z,02/25/21 16:19,5275515,0.542,0.004,710,18.9,29.4,71,0.0
2021-02-25T21:20:24Z,02/25/21 16:20,5275522,0.63,0.003,706,18.9,29.4,71,0.0
2021-02-25T21:21:24Z,02/25/21 16:21,5275530,0.671,0.001,706,18.9,29.4,71,0.0
2021-02-25T21:22:24Z,02/25/21 16:22,5275540,0.747,0.006,701,18.9,29.5,71,0.0
2021-02-25T21:23:24Z,02/25/21 16:23,5275548,0.599,0.001,707,18.9,29.5,71,0.0
2021-02-25T21:24:24Z,02/25/21 16:24,5275555,0.5549999999999999,0.003,710,18.9,29.5,71,0.0
2021-02-25T21:25:24Z,02/25/21 16:25,5275564,0.593,0.004,697,18.9,29.5,71,0.0
2021-02-25T21:26:24Z,02/25/21 16:26,5275570,0.636,0.006,710,18.8,29.5,71,0.0
2021-02-25T21:27:24Z,02/25/21 16:27,5275578,0.614,0.001,698,18.8,29.6,71,0.0
2021-02-25T21:28:24Z,02/25/21 16:28,5275587,0.742,0.008,700,18.8,29.6,71,0.0
2021-02-25T21:29:24Z,02/25/21 16:29,5275594,0.6599999999999999,0.006,700,18.8,29.6,71,0.0
2021-02-25T21:30:24Z,02/25/21 16:30,5275603,0.6679999999999999,0.007000000000000001,694,18.7,29.7,71,0.0
2021-02-25T21:31:24Z,02/25/21 16:31,5275610,0.771,0.003,685,18.7,29.7,71,0.0
2021-02-25T21:32:24Z,02/25/21 16:32,5275618,0.749,0.01,685,18.7,29.8,71,0.0
2021-02-25T21:33:24Z,02/25/21 16:33,5275626,0.634,0.005,685,18.6,29.8,71,0.0
2021-02-25T21:34:24Z,02/25/21 16:34,5275635,0.675,0.006,697,18.6,29.7,71,0.0
2021-02-25T21:35:24Z,02/25/21 16:35,5275642,0.5780000000000001,0.004,698,18.6,29.7,71,0.0
2021-02-25T21:36:24Z,02/25/21 16:36,5275651,0.6910000000000001,0.005,700,18.6,29.8,71,0.0
2021-02-25T21:37:24Z,02/25/21 16:37,5275660,0.663,0.009,691,18.5,29.8,71,0.0
2021-02-25T21:38:24Z,02/25/21 16:38,5275666,0.63,0.003,682,18.5,29.8,71,0.0
2021-02-25T21:39:24Z,02/25/21 16:39,5275675,0.661,0.002,676,18.5,29.8,71,0.0
2021-02-25T21:40:24Z,02/25/21 16:40,5275682,0.5780000000000001,0.001,674,18.5,29.8,71,0.0
2021-02-25T21:41:24Z,02/25/21 16:41,5275690,0.584,0.001,689,18.4,29.8,71,0.0
2021-02-25T21:42:24Z,02/25/21 16:42,5275698,0.718,0.005,685,18.4,29.9,71,0.0
2021-02-25T21:43:24Z,02/25/21 16:43,5275706,0.53,0.001,674,18.4,29.9,71,0.0
2021-02-25T21:44:24Z,02/25/21 16:44,5275715,0.755,0.004,691,18.4,29.9,71,0.0
2021-02-25T21:45:24Z,02/25/21 16:45,5275722,0.6679999999999999,0.001,674,18.4,29.9,71,0.0
2021-02-25T21:46:24Z,02/25/21 16:46,5275730,0.636,0.003,677,18.3,29.9,71,0.0
2021-02-25T21:47:24Z,02/25/21 16:47,5275738,0.696,0.006,674,18.3,29.9,71,0.0
2021-02-25T21:48:24Z,02/25/21 16:48,5275746,0.733,0.002,677,18.3,29.9,71,0.0
2021-02-25T21:49:24Z,02/25/21 16:49,5275755,0.48,0.006,673,18.3,30.0,71,0.0
2021-02-25T21:50:24Z,02/25/21 16:50,5275762,0.655,0.002,677,18.2,30.0,71,0.0
2021-02-25T21:51:24Z,02/25/21 16:51,5275770,0.732,0.006,668,18.2,30.0,71,0.0
2021-02-25T21:52:24Z,02/25/21 16:52,5275779,0.602,0.004,664,18.2,30.0,71,0.0
2021-02-25T21:53:24Z,02/25/21 16:53,5275788,0.613,0.002,659,18.1,30.0,71,0.0
2021-02-25T21:54:24Z,02/25/21 16:54,5275797,0.671,0.004,656,18.1,30.1,71,0.0
2021-02-25T21:55:24Z,02/25/21 16:55,5275806,0.5900000000000001,0.001,649,18.1,30.1,71,0.0
2021-02-25T21:56:24Z,02/25/21 16:56,5275815,0.481,0.002,661,18.1,30.1,71,0.0
2021-02-25T21:57:24Z,02/25/21 16:57,5275824,0.752,0.004,659,18.1,30.1,71,0.0
2021-02-25T21:58:24Z,02/25/21 16:58,5275833,0.621,0.006,667,18.1,30.1,71,0.0
2021-02-25T21:59:24Z,02/25/21 16:59,5275841,0.6950000000000001,0.01,658,18.1,30.1,71,0.0
2021-02-25T22:00:24Z,02/25/21 17:00,5275852,0.693,0.0,646,18.0,30.1,71,0.0
2021-02-25T22:01:24Z,02/25/21 17:01,5275861,0.614,0.007000000000000001,643,18.0,30.1,71,0.0
2021-02-25T22:02:24Z,02/25/21 17:02,5275869,0.712,0.002,650,18.0,30.1,71,0.0
2021-02-25T22:03:24Z,02/25/21 17:03,5275877,0.5599999999999999,0.001,653,18.0,30.1,71,0.0
2021-02-25T22:04:24Z,02/25/21 17:04,5275886,0.515,0.004,648,17.9,30.1,71,0.0
2021-02-25T22:05:24Z,02/25/21 17:05,5275896,0.5740000000000001,0.002,644,17.9,30.1,71,0.0
2021-02-25T22:06:24Z,02/25/21 17:06,5275905,0.517,0.002,647,17.9,30.1,71,0.0
2021-02-25T22:07:24Z,02/25/21 17:07,5275914,0.508,0.005,652,17.9,30.1,71,0.0
2021-02-25T22:08:24Z,02/25/21 17:08,5275921,0.596,0.001,658,17.9,30.1,71,0.0
2021-02-25T22:09:24Z,02/25/21 17:09,5275930,0.591,0.003,641,17.9,30.1,71,0.0
2021-02-25T22:10:24Z,02/25/21 17:10,5275938,0.625,0.005,644,17.8,30.1,71,0.0
2021-02-25T22:11:24Z,02/25/21 17:11,5275946,0.602,0.001,634,17.8,30.1,71,0.0
2021-02-25T22:12:24Z,02/25/21 17:12,5275956,0.589,0.002,647,17.8,30.1,71,0.0
2021-02-25T22:13:24Z,02/25/21 17:13,5275963,0.702,0.003,637,17.8,30.1,71,0.0
2021-02-25T22:14:24Z,02/25/21 17:14,5275971,0.576,0.0,634,17.7,30.1,71,1.0
2021-02-25T22:15:24Z,02/25/21 17:15,5275980,0.602,0.004,634,17.7,30.2,71,0.0
2021-02-25T22:16:24Z,02/25/21 17:16,5275987,0.571,0.002,644,17.7,30.2,71,0.0
2021-02-25T22:17:24Z,02/25/21 17:17,5275995,0.537,0.003,638,17.7,30.2,71,1.0
2021-02-25T22:18:24Z,02/25/21 17:18,5276003,0.636,0.0,639,17.6,30.2,71,0.0
2021-02-25T22:19:24Z,02/25/21 17:19,5276012,0.53,0.004,637,17.6,30.2,71,0.0
2021-02-25T22:20:24Z,02/25/21 17:20,5276021,0.5690000000000001,0.004,632,17.6,30.1,71,0.0
2021-02-25T22:21:24Z,02/25/21 17:21,5276027,0.52,0.002,627,17.6,30.0,71,1.0
2021-02-25T22:22:24Z,02/25/21 17:22,5276035,0.624,0.003,627,17.6,29.9,71,1.0
2021-02-25T22:23:24Z,02/25/21 17:23,5276043,0.607,0.005,628,17.6,29.9,71,1.0
2021-02-25T22:24:24Z,02/25/21 17:24,5276051,0.623,0.004,616,17.6,29.9,71,1.0
2021-02-25T22:25:24Z,02/25/21 17:25,5276059,0.739,0.002,619,17.6,29.9,71,1.0
2021-02-25T22:26:24Z,02/25/21 17:26,5276068,0.544,0.002,628,17.5,29.9,71,0.0
2021-02-25T22:27:24Z,02/25/21 17:27,5276075,0.513,0.003,614,17.5,29.9,71,0.0
2021-02-25T22:28:24Z,02/25/21 17:28,5276083,0.525,0.003,622,17.5,29.9,71,1.0
2021-02-25T22:29:24Z,02/25/21 17:29,5276091,0.603,0.0,624,17.5,29.9,71,2.0
2021-02-25T22:30:24Z,02/25/21 17:30,5276101,0.641,0.007000000000000001,618,17.5,29.9,71,2.0
2021-02-25T22:31:24Z,02/25/21 17:31,5276108,0.648,0.003,618,17.5,29.9,71,2.0
2021-02-25T22:32:24Z,02/25/21 17:32,5276116,0.546,0.006,616,17.5,29.8,71,0.0
2021-02-25T22:33:24Z,02/25/21 17:33,5276123,0.485,0.001,618,17.4,29.8,71,0.0
2021-02-25T22:34:24Z,02/25/21 17:34,5276133,0.532,0.002,611,17.4,29.8,71,0.0
2021-02-25T22:35:24Z,02/25/21 17:35,5276143,0.589,0.002,608,17.4,29.8,71,3.0
2021-02-25T22:36:24Z,02/25/21 17:36,5276150,0.624,0.003,622,17.4,29.8,71,1.0
2021-02-25T22:37:24Z,02/25/21 17:37,5276158,0.477,0.003,611,17.4,29.8,71,3.0
2021-02-25T22:38:24Z,02/25/21 17:38,5276166,0.575,0.001,618,17.4,29.9,71,3.0
2021-02-25T22:39:24Z,02/25/21 17:39,5276174,0.647,0.001,609,17.4,30.0,71,4.0
2021-02-25T22:40:24Z,02/25/21 17:40,5276182,0.587,0.001,601,17.4,30.0,71,4.0
2021-02-25T22:41:24Z,02/25/21 17:41,5276191,0.492,0.009,604,17.4,30.0,71,4.0
2021-02-25T22:42:24Z,02/25/21 17:42,5276198,0.534,0.0,605,17.4,30.0,71,2.0
2021-02-25T22:43:24Z,02/25/21 17:43,5276206,0.581,0.001,609,17.4,30.0,71,4.0
2021-02-25T22:44:24Z,02/25/21 17:44,5276215,0.5,0.004,605,17.4,30.1,71,2.0
2021-02-25T22:45:24Z,02/25/21 17:45,5276222,0.629,0.001,614,17.4,30.1,71,4.0
2021-02-25T22:46:24Z,02/25/21 17:46,5276229,0.5860000000000001,0.002,611,17.4,30.1,71,4.0
2021-02-25T22:47:24Z,02/25/21 17:47,5276237,0.596,0.001,593,17.4,30.2,71,2.0
2021-02-25T22:48:24Z,02/25/21 17:48,5276244,0.525,0.003,611,17.3,30.3,71,5.0
2021-02-25T22:49:24Z,02/25/21 17:49,5276252,0.53,0.001,602,17.3,30.3,71,3.0
2021-02-25T22:50:24Z,02/25/21 17:50,5276260,0.546,0.003,593,17.3,30.3,71,4.0
2021-02-25T22:51:24Z,02/25/21 17:51,5276268,0.538,0.002,605,17.3,30.3,71,3.0
2021-02-25T22:52:24Z,02/25/21 17:52,5276277,0.635,0.004,609,17.3,30.3,71,5.0
2021-02-25T22:53:24Z,02/25/21 17:53,5276286,0.5349999999999999,0.002,592,17.3,30.3,71,3.0
2021-02-25T22:54:24Z,02/25/21 17:54,5276293,0.53,0.001,606,17.3,30.3,71,3.0
2021-02-25T22:55:24Z,02/25/21 17:55,5276301,0.564,0.003,606,17.3,30.3,71,3.0
2021-02-25T22:56:24Z,02/25/21 17:56,5276309,0.506,0.001,608,17.3,30.3,71,2.0
2021-02-25T22:57:24Z,02/25/21 17:57,5276317,0.5559999999999999,0.002,593,17.2,30.3,71,2.0
2021-02-25T22:58:24Z,02/25/21 17:58,5276326,0.40199999999999997,0.0,602,17.2,30.4,71,4.0
2021-02-25T22:59:24Z,02/25/21 17:59,5276333,0.5700000000000001,0.0,601,17.2,30.4,71,2.0
2021-02-25T23:00:24Z,02/25/21 18:00,5276342,0.671,0.004,601,17.2,30.4,71,3.0
2021-02-25T23:01:24Z,02/25/21 18:01,5276350,0.526,0.002,606,17.2,30.4,71,3.0
2021-02-25T23:02:24Z,02/25/21 18:02,5276361,0.537,0.0,602,17.2,30.4,71,4.0
2021-02-25T23:03:24Z,02/25/21 18:03,5276366,0.511,0.002,598,17.2,30.4,71,2.0
2021-02-25T23:04:24Z,02/25/21 18:04,5276375,0.606,0.0,611,17.2,30.4,71,4.0
2021-02-25T23:05:24Z,02/25/21 18:05,5276383,0.5309999999999999,0.0,591,17.1,30.4,71,2.0
2021-02-25T23:06:24Z,02/25/21 18:06,5276392,0.561,0.0,598,17.1,30.4,71,2.0
2021-02-25T23:07:24Z,02/25/21 18:07,5276400,0.5780000000000001,0.001,596,17.1,30.4,71,2.0
2021-02-25T23:08:24Z,02/25/21 18:08,5276408,0.5519999999999999,0.003,591,17.1,30.4,71,3.0
2021-02-25T23:09:24Z,02/25/21 18:09,5276419,0.575,0.001,593,17.1,30.4,71,4.0
2021-02-25T23:10:24Z,02/25/21 18:10,5276426,0.532,0.002,602,17.1,30.4,71,4.0
2021-02-25T23:11:24Z,02/25/21 18:11,5276435,0.5660000000000001,0.001,598,17.1,30.4,71,2.0
2021-02-25T23:12:24Z,02/25/21 18:12,5276442,0.62,0.001,593,17.1,30.4,71,4.0
2021-02-25T23:13:24Z,02/25/21 18:13,5276450,0.5269999999999999,0.001,602,17.1,30.4,71,2.0
2021-02-25T23:14:24Z,02/25/21 18:14,5276459,0.587,0.001,595,17.0,30.4,71,2.0
2021-02-25T23:15:24Z,02/25/21 18:15,5276467,0.5740000000000001,0.002,593,17.0,30.4,71,4.0
2021-02-25T23:16:24Z,02/25/21 18:16,5276474,0.437,0.001,604,17.0,30.4,71,2.0
2021-02-25T23:17:24Z,02/25/21 18:17,5276482,0.5900000000000001,0.001,598,17.0,30.4,71,4.0
2021-02-25T23:18:24Z,02/25/21 18:18,5276490,0.564,0.0,602,17.0,30.4,71,3.0
2021-02-25T23:19:24Z,02/25/21 18:19,5276498,0.571,0.002,591,17.0,30.4,71,4.0
2021-02-25T23:20:24Z,02/25/21 18:20,5276506,0.506,0.001,602,16.9,30.4,71,4.0
2021-02-25T23:21:24Z,02/25/21 18:21,5276514,0.5269999999999999,0.001,598,16.9,30.4,71,4.0
2021-02-25T23:22:24Z,02/25/21 18:22,5276522,0.606,0.003,589,16.9,30.4,71,4.0
2021-02-25T23:23:24Z,02/25/21 18:23,5276531,0.517,0.002,588,16.9,30.5,71,3.0
2021-02-25T23:24:24Z,02/25/21 18:24,5276538,0.5469999999999999,0.002,602,16.9,30.5,71,4.0
2021-02-25T23:25:24Z,02/25/21 18:25,5276548,0.528,0.0,596,16.9,30.5,71,4.0
2021-02-25T23:26:24Z,02/25/21 18:26,5276555,0.5900000000000001,0.001,593,16.9,30.4,71,4.0
2021-02-25T23:27:24Z,02/25/21 18:27,5276563,0.5980000000000001,0.002,602,16.9,30.4,71,4.0
2021-02-25T23:28:24Z,02/25/21 18:28,5276571,0.592,0.002,592,16.9,30.4,71,2.0
2021-02-25T23:29:24Z,02/25/21 18:29,5276580,0.571,0.002,598,16.8,30.4,71,4.0
2021-02-25T23:30:24Z,02/25/21 18:30,5276589,0.544,0.002,591,16.8,30.4,71,4.0
2021-02-25T23:31:24Z,02/25/21 18:31,5276597,0.679,0.002,601,16.8,30.4,71,2.0
2021-02-25T23:32:24Z,02/25/21 18:32,5276606,0.596,0.001,596,16.8,30.4,71,2.0
2021-02-25T23:33:24Z,02/25/21 18:33,5276615,0.5940000000000001,0.003,589,16.8,30.4,71,2.0
2021-02-25T23:34:24Z,02/25/21 18:34,5276624,0.558,0.003,586,16.8,30.3,71,2.0
2021-02-25T23:35:24Z,02/25/21 18:35,5276631,0.732,0.003,593,16.8,30.3,71,4.0
2021-02-25T23:36:24Z,02/25/21 18:36,5276639,0.595,0.002,598,16.8,30.3,71,2.0
2021-02-25T23:37:24Z,02/25/21 18:37,5276647,0.5730000000000001,0.0,583,16.8,30.3,71,3.0
2021-02-25T23:38:24Z,02/25/21 18:38,5276655,0.673,0.002,595,16.7,30.3,71,2.0
2021-02-25T23:39:24Z,02/25/21 18:39,5276664,0.623,0.004,591,16.7,30.3,71,3.0
2021-02-25T23:40:24Z,02/25/21 18:40,5276672,0.521,0.001,592,16.7,30.3,71,2.0
2021-02-25T23:41:24Z,02/25/21 18:41,5276681,0.5780000000000001,0.004,588,16.7,30.3,71,3.0
2021-02-25T23:42:24Z,02/25/21 18:42,5276689,0.479,0.004,593,16.7,30.2,71,2.0
2021-02-25T23:43:24Z,02/25/21 18:43,5276696,0.5940000000000001,0.003,586,16.7,30.2,71,4.0
2021-02-25T23:44:24Z,02/25/21 18:44,5276706,0.542,0.001,586,16.7,30.3,71,2.0
2021-02-25T23:45:24Z,02/25/21 18:45,5276715,0.518,0.001,582,16.7,30.3,71,4.0
2021-02-25T23:46:24Z,02/25/21 18:46,5276723,0.522,0.003,586,16.7,30.3,71,4.0
2021-02-25T23:47:24Z,02/25/21 18:47,5276733,0.618,0.003,591,16.7,30.3,71,2.0
2021-02-25T23:48:24Z,02/25/21 18:48,5276741,0.638,0.001,589,16.7,30.3,71,4.0
2021-02-25T23:49:24Z,02/25/21 18:49,5276749,0.595,0.002,591,16.7,30.3,71,2.0
2021-02-25T23:50:24Z,02/25/21 18:50,5276758,0.5429999999999999,0.0,586,16.7,30.3,71,2.0
2021-02-25T23:51:24Z,02/25/21 18:51,5276766,0.583,0.002,591,16.6,30.3,71,4.0
2021-02-25T23:52:24Z,02/25/21 18:52,5276774,0.506,0.001,592,16.6,30.3,71,4.0
2021-02-25T23:53:24Z,02/25/21 18:53,5276782,0.673,0.002,586,16.6,30.4,71,5.0
2021-02-25T23:54:24Z,02/25/21 18:54,5276791,0.564,0.003,589,16.6,30.4,71,4.0
2021-02-25T23:55:24Z,02/25/21 18:55,5276800,0.549,0.003,586,16.6,30.4,71,3.0
2021-02-25T23:56:24Z,02/25/21 18:56,5276808,0.5820000000000001,0.003,585,16.6,30.4,71,2.0
2021-02-25T23:57:24Z,02/25/21 18:57,5276816,0.774,0.0,581,16.6,30.4,71,5.0
2021-02-25T23:58:24Z,02/25/21 18:58,5276826,0.616,0.002,589,16.6,30.4,71,3.0
2021-02-25T23:59:24Z,02/25/21 18:59,5276834,0.6799999999999999,0.001,586,16.5,30.4,71,5.0
2021-02-26T00:00:24Z,02/25/21 19:00,5276843,0.53,0.001,585,16.5,30.4,71,4.0
2021-02-26T00:01:24Z,02/25/21 19:01,5276853,0.623,0.001,586,16.5,30.4,71,5.0
2021-02-26T00:02:24Z,02/25/21 19:02,5276861,0.495,0.0,586,16.5,30.4,71,2.0
2021-02-26T00:03:24Z,02/25/21 19:03,5276869,0.731,0.001,582,16.5,30.4,71,3.0
2021-02-26T00:04:24Z,02/25/21 19:04,5276877,0.5730000000000001,0.0,586,16.5,30.4,71,3.0
2021-02-26T00:05:24Z,02/25/21 19:05,5276885,0.612,0.0,593,16.5,30.4,71,3.0
2021-02-26T00:06:24Z,02/25/21 19:06,5276893,0.717,0.0,578,16.5,30.5,71,3.0
2021-02-26T00:07:24Z,02/25/21 19:07,5276902,0.599,0.004,582,16.5,30.5,71,3.0
2021-02-26T00:08:24Z,02/25/21 19:08,5276911,0.739,0.002,586,16.5,30.5,71,3.0
2021-02-26T00:09:24Z,02/25/21 19:09,5276919,0.74,0.001,586,16.5,30.5,71,5.0
2021-02-26T00:10:24Z,02/25/21 19:10,5276929,0.562,0.002,589,16.5,30.5,71,3.0
2021-02-26T00:11:24Z,02/25/21 19:11,5276938,0.562,0.002,585,16.5,30.5,71,4.0
2021-02-26T00:12:24Z,02/25/21 19:12,5276946,0.714,0.0,573,16.5,30.5,71,5.0
2021-02-26T00:13:24Z,02/25/21 19:13,5276954,0.5820000000000001,0.003,578,16.5,30.5,71,5.0
2021-02-26T00:14:24Z,02/25/21 19:14,5276962,0.562,0.002,581,16.5,30.5,71,3.0
2021-02-26T00:15:24Z,02/25/21 19:15,5276970,0.7150000000000001,0.002,595,16.5,30.5,71,5.0
2021-02-26T00:16:24Z,02/25/21 19:16,5276980,0.629,0.001,582,16.5,30.5,71,4.0
2021-02-26T00:17:24Z,02/25/21 19:17,5276989,0.653,0.001,575,16.5,30.5,71,4.0
2021-02-26T00:18:24Z,02/25/21 19:18,5276998,0.624,0.0,582,16.5,30.5,71,4.0
2021-02-26T00:19:24Z,02/25/21 19:19,5277005,0.696,0.003,583,16.5,30.5,71,4.0
2021-02-26T00:20:24Z,02/25/21 19:20,5277013,0.615,0.0,588,16.4,30.5,71,5.0
2021-02-26T00:21:24Z,02/25/21 19:21,5277021,0.631,0.002,599,16.4,30.5,71,5.0
2021-02-26T00:22:24Z,02/25/21 19:22,5277029,0.599,0.001,576,16.4,30.5,71,4.0
2021-02-26T00:23:24Z,02/25/21 19:23,5277039,0.55,0.002,582,16.4,30.5,71,4.0
2021-02-26T00:24:24Z,02/25/21 19:24,5277048,0.63,0.003,596,16.4,30.5,71,3.0
2021-02-26T00:25:23Z,02/25/21 19:25,5277057,0.596,0.001,588,16.4,30.5,71,4.0
2021-02-26T00:26:24Z,02/25/21 19:26,5277066,0.686,0.001,581,16.4,30.5,71,5.0
2021-02-26T00:27:23Z,02/25/21 19:27,5277076,0.759,0.0,593,16.4,30.5,71,4.0
2021-02-26T00:28:23Z,02/25/21 19:28,5277084,0.8160000000000001,0.003,581,16.4,30.5,71,5.0
2021-02-26T00:29:23Z,02/25/21 19:29,5277093,0.853,0.002,585,16.4,30.5,71,5.0
2021-02-26T00:30:23Z,02/25/21 19:30,5277102,0.7809999999999999,0.002,581,16.3,30.5,71,5.0
2021-02-26T00:31:24Z,02/25/21 19:31,5277112,0.6990000000000001,0.003,583,16.3,30.5,71,6.0
2021-02-26T00:32:23Z,02/25/21 19:32,5277120,0.746,0.001,586,16.3,30.5,71,3.0
2021-02-26T00:33:24Z,02/25/21 19:33,5277129,0.795,0.0,578,16.3,30.5,71,6.0
2021-02-26T00:34:23Z,02/25/21 19:34,5277138,0.79,0.002,572,16.3,30.5,71,5.0
2021-02-26T00:35:23Z,02/25/21 19:35,5277147,0.6900000000000001,0.003,572,16.3,30.5,71,5.0
2021-02-26T00:36:24Z,02/25/21 19:36,5277156,0.771,0.003,569,16.3,30.6,71,6.0
2021-02-26T00:37:23Z,02/25/21 19:37,5277165,0.746,0.001,582,16.3,30.6,71,6.0
2021-02-26T00:38:24Z,02/25/21 19:38,5277175,0.869,0.001,578,16.3,30.6,71,4.0
2021-02-26T00:39:23Z,02/25/21 19:39,5277184,0.709,0.002,583,16.2,30.6,71,5.0
2021-02-26T00:40:23Z,02/25/21 19:40,5277193,0.761,0.001,579,16.2,30.6,71,4.0
2021-02-26T00:41:23Z,02/25/21 19:41,5277201,0.817,0.002,586,16.2,30.6,71,4.0
2021-02-26T00:42:23Z,02/25/21 19:42,5277211,0.776,0.001,589,16.2,30.6,71,4.0
2021-02-26T00:43:24Z,02/25/21 19:43,5277219,0.8460000000000001,0.009,573,16.2,30.6,71,4.0
2021-02-26T00:44:23Z,02/25/21 19:44,5277228,0.768,0.0,579,16.2,30.6,71,5.0
2021-02-26T00:45:23Z,02/25/21 19:45,5277237,0.748,0.002,578,16.2,30.6,71,5.0
2021-02-26T00:46:23Z,02/25/21 19:46,5277246,0.674,0.004,572,16.2,30.6,71,6.0
2021-02-26T00:47:23Z,02/25/21 19:47,5277255,0.7969999999999999,0.004,572,16.2,30.6,71,4.0
2021-02-26T00:48:24Z,02/25/21 19:48,5277264,0.8130000000000001,0.0,575,16.2,30.6,71,4.0
2021-02-26T00:49:23Z,02/25/21 19:49,5277273,0.834,0.003,573,16.2,30.6,71,5.0
2021-02-26T00:50:23Z,02/25/21 19:50,5277282,0.64,0.002,578,16.2,30.5,71,5.0
2021-02-26T00:51:23Z,02/25/21 19:51,5277291,0.581,0.001,578,16.2,30.5,71,5.0
2021-02-26T00:52:23Z,02/25/21 19:52,5277300,0.7190000000000001,0.001,581,16.2,30.5,71,5.0
2021-02-26T00:53:24Z,02/25/21 19:53,5277309,0.717,0.003,566,16.2,30.4,71,4.0
2021-02-26T00:54:23Z,02/25/21 19:54,5277318,0.734,0.001,566,16.2,30.4,71,5.0
2021-02-26T00:55:23Z,02/25/21 19:55,5277328,0.614,0.004,578,16.1,30.4,71,5.0
2021-02-26T00:56:23Z,02/25/21 19:56,5277336,0.689,0.001,568,16.1,30.4,71,4.0
2021-02-26T00:57:23Z,02/25/21 19:57,5277345,0.79,0.002,576,16.1,30.4,71,4.0
2021-02-26T00:58:24Z,02/25/21 19:58,5277359,0.74,0.001,578,16.1,30.4,71,4.0
2021-02-26T00:59:23Z,02/25/21 19:59,5277363,0.716,0.001,583,16.1,30.4,71,6.0
2021-02-26T01:01:01Z,02/25/21 20:01,5277377,0.6559999999999999,0.001,578,16.1,30.4,71,6.0
2021-02-26T01:02:01Z,02/25/21 20:02,5277386,0.818,0.001,582,16.1,30.4,71,5.0
2021-02-26T01:03:01Z,02/25/21 20:03,5277401,0.759,0.0,579,16.1,30.4,71,3.0
2021-02-26T01:04:01Z,02/25/21 20:04,5277404,0.696,0.003,575,16.1,30.4,71,5.0
2021-02-26T01:05:55Z,02/25/21 20:05,5277421,0.8,0.001,576,16.1,30.4,71,4.0
2021-02-26T01:06:55Z,02/25/21 20:06,5277430,0.795,0.0,578,16.1,30.4,71,3.0
2021-02-26T01:07:55Z,02/25/21 20:07,5277439,0.77,0.001,579,16.1,30.4,71,4.0
2021-02-26T01:08:55Z,02/25/21 20:08,5277448,0.761,0.004,572,16.1,30.4,71,4.0
2021-02-26T01:09:55Z,02/25/21 20:09,5277459,0.72,0.0,573,16.1,30.4,71,4.0
2021-02-26T01:10:55Z,02/25/21 20:10,5277466,0.79,0.002,572,16.1,30.4,71,4.0
2021-02-26T01:11:55Z,02/25/21 20:11,5277475,0.819,0.0,569,16.1,30.4,71,4.0
2021-02-26T01:12:55Z,02/25/21 20:12,5277484,0.687,0.003,578,16.0,30.4,71,5.0
2021-02-26T01:13:55Z,02/25/21 20:13,5277498,0.773,0.001,579,16.0,30.4,71,4.0
2021-02-26T01:14:55Z,02/25/21 20:14,5277502,0.736,0.002,582,16.0,30.4,71,6.0
2021-02-26T01:15:55Z,02/25/21 20:15,5277510,0.749,0.004,578,16.0,30.5,71,5.0
2021-02-26T01:16:55Z,02/25/21 20:16,5277520,0.743,0.001,575,16.0,30.5,71,4.0
2021-02-26T01:17:55Z,02/25/21 20:17,5277529,0.8539999999999999,0.001,569,16.0,30.5,71,6.0
2021-02-26T01:18:55Z,02/25/21 20:18,5277538,0.8119999999999999,0.001,578,16.0,30.5,71,5.0
2021-02-26T01:19:55Z,02/25/21 20:19,5277547,0.799,0.002,569,16.0,30.5,71,5.0
2021-02-26T01:20:55Z,02/25/21 20:20,5277556,0.768,0.0,582,16.0,30.5,71,5.0
2021-02-26T01:21:55Z,02/25/21 20:21,5277565,0.836,0.001,578,16.0,30.5,71,6.0
2021-02-26T01:22:55Z,02/25/21 20:22,5277574,0.799,0.002,572,16.0,30.5,71,5.0
2021-02-26T01:23:55Z,02/25/21 20:23,5277583,0.818,0.001,569,16.0,30.5,71,5.0
2021-02-26T01:24:55Z,02/25/21 20:24,5277592,0.765,0.003,570,15.9,30.5,71,6.0
2021-02-26T01:25:55Z,02/25/21 20:25,5277601,0.635,0.001,573,15.9,30.5,71,4.0
2021-02-26T01:26:55Z,02/25/21 20:26,5277610,0.826,0.002,562,15.9,30.5,71,4.0
2021-02-26T01:27:55Z,02/25/21 20:27,5277619,0.8550000000000001,0.0,568,15.9,30.5,71,6.0
2021-02-26T01:28:55Z,02/25/21 20:28,5277628,0.8550000000000001,0.0,576,15.9,30.6,71,6.0
2021-02-26T01:29:55Z,02/25/21 20:29,5277637,0.724,0.005,580,15.9,30.6,71,5.0
2021-02-26T01:30:55Z,02/25/21 20:30,5277646,0.682,0.002,577,15.8,30.6,71,5.0
2021-02-26T01:31:55Z,02/25/21 20:31,5277655,0.788,0.007000000000000001,577,15.8,30.6,71,4.0
2021-02-26T01:32:55Z,02/25/21 20:32,5277664,0.757,0.002,579,15.8,30.6,71,5.0
2021-02-26T01:33:55Z,02/25/21 20:33,5277673,0.8130000000000001,0.0,569,15.8,30.6,71,6.0
2021-02-26T01:34:55Z,02/25/21 20:34,5277682,0.8130000000000001,0.0,577,15.8,30.6,71,4.0
2021-02-26T01:35:55Z,02/25/21 20:35,5277691,0.866,0.004,573,15.8,30.7,71,6.0
2021-02-26T01:36:55Z,02/25/21 20:36,5277700,0.709,0.002,573,15.8,30.7,71,4.0
2021-02-26T01:37:55Z,02/25/21 20:37,5277709,0.765,0.003,573,15.8,30.7,71,6.0
2021-02-26T01:38:55Z,02/25/21 20:38,5277718,0.771,0.0,577,15.8,30.7,71,4.0
2021-02-26T01:39:55Z,02/25/21 20:39,5277727,0.725,0.001,586,15.8,30.7,71,4.0
2021-02-26T01:40:55Z,02/25/21 20:40,5277736,0.692,0.001,577,15.8,30.7,71,6.0
2021-02-26T01:41:55Z,02/25/21 20:41,5277745,0.8880000000000001,0.003,579,15.8,30.7,71,4.0
2021-02-26T01:42:55Z,02/25/21 20:42,5277754,0.807,0.003,577,15.8,30.7,71,5.0
2021-02-26T01:43:55Z,02/25/21 20:43,5277763,0.836,0.004,579,15.8,30.7,71,6.0
2021-02-26T01:44:55Z,02/25/21 20:44,5277772,0.751,0.002,577,15.8,30.7,71,5.0
2021-02-26T01:45:55Z,02/25/21 20:45,5277781,0.783,0.003,586,15.8,30.7,71,6.0
2021-02-26T01:46:55Z,02/25/21 20:46,5277790,0.746,0.001,577,15.8,30.8,71,4.0
2021-02-26T01:47:55Z,02/25/21 20:47,5277799,0.75,0.0,569,15.8,30.8,71,4.0
2021-02-26T01:48:55Z,02/25/21 20:48,5277807,1.0230000000000001,0.003,577,15.7,30.8,71,5.0
2021-02-26T01:49:55Z,02/25/21 20:49,5277816,0.818,0.001,577,15.7,30.8,71,5.0
2021-02-26T01:50:55Z,02/25/21 20:50,5277825,0.845,0.001,582,15.7,30.8,71,4.0
2021-02-26T01:51:55Z,02/25/21 20:51,5277834,0.834,0.0,573,15.7,30.8,71,6.0
2021-02-26T01:52:55Z,02/25/21 20:52,5277843,0.827,0.001,577,15.7,30.8,71,6.0
2021-02-26T01:53:55Z,02/25/21 20:53,5277852,0.736,0.002,577,15.7,30.8,71,4.0
2021-02-26T01:54:55Z,02/25/21 20:54,5277861,0.776,0.001,573,15.7,30.8,71,5.0
2021-02-26T01:55:55Z,02/25/21 20:55,5277870,0.8119999999999999,0.004,564,15.7,30.8,71,5.0
2021-02-26T01:56:55Z,02/25/21 20:56,5277879,0.865,0.005,568,15.7,30.8,71,6.0
2021-02-26T01:57:55Z,02/25/21 20:57,5277888,0.5940000000000001,0.003,573,15.7,30.8,71,5.0
2021-02-26T01:58:55Z,02/25/21 20:58,5277897,0.71,0.001,558,15.7,30.8,71,6.0
2021-02-26T01:59:55Z,02/25/21 20:59,5277906,0.771,0.0,565,15.7,30.8,71,6.0
2021-02-26T02:00:55Z,02/25/21 21:00,5277915,0.726,0.0,560,15.7,30.8,71,5.0